Overview Statistics Trail Chart Weather Telemetry Raw packets
 

This is the latest recevied weather packets stored in our database for station/object K8RRT. If no packets are shown the sender has not sent any weather packets the latest 10 day(s).

<< 62 63 64 65 66 67 68 >>
Time Temp. Humidity Pressure Rain* Wind** Luminosity Snow
1788192617 28.33° C 80% 1016.7 hPa 0 mm - 653 W/m² -
1788192316 28.33° C 82% 1016.8 hPa 0 mm - 749 W/m² -
1788192015 27.78° C 84% 1016.8 hPa 0 mm - 548 W/m² -
1788191707 27.22° C 84% 1016.8 hPa 0 mm - 378 W/m² -
1788191401 27.22° C 84% 1017 hPa 0 mm - 453 W/m² -
1788191098 27.22° C 85% 1016.8 hPa 0 mm - 360 W/m² -
1788190796 26.67° C 85% 1016.6 hPa 0 mm - 319 W/m² -
1788190492 26.67° C 85% 1016.7 hPa 0 mm - 276 W/m² -
1788190189 26.67° C 85% 1016.7 hPa 0 mm - 271 W/m² -
1788189883 26.67° C 86% 1016.9 hPa 0 mm - 282 W/m² -
1788189579 26.11° C 86% 1016.9 hPa 0 mm - 283 W/m² -
1788189278 26.11° C 89% 1017 hPa 0 mm - 275 W/m² -
1788188973 25.56° C 88% 1017.1 hPa 0 mm - 237 W/m² -
1788188673 25.56° C 89% 1017 hPa 0 mm - 189 W/m² -
1788188368 25.56° C 92% 1016.8 hPa 0 mm - 170 W/m² -
1788188064 25.56° C 92% 1016.7 hPa 0 mm - 174 W/m² -
1788187760 25.56° C 93% 1016.7 hPa 0 mm - 154 W/m² -
1788187449 25° C 94% 1016.8 hPa 0 mm - 124 W/m² -
1788187144 25° C 94% 1016.7 hPa 0 mm - 115 W/m² -
1788186839 25° C 96% 1016.9 hPa 0 mm - 102 W/m² -
1788186535 24.44° C 96% 1016.4 hPa 0 mm - 90 W/m² -
1788186245 23.89° C 98% 1016.8 hPa 0 mm - 79 W/m² -
1788185924 23.89° C 99% 1016.7 hPa 0 mm - 77 W/m² -
1788185619 23.89° C 99% 1016.5 hPa 0 mm - 90 W/m² -
1788185314 23.33° C 99% 1016.5 hPa 0 mm - 114 W/m² -

* Rain latest hour (hover to see other rain measurements)
** Current wind speed in m/s (hover to see current wind gust speed)